<?xml version="1.0"?>
<gpx xmlns="http://www.topografix.com/GPX/1/1" xmlns:xsi="http://www.w3.org/2001/XMLSchema-instance" version="1.1" creator="GPX RubyGem 1.0.0 -- http://dougfales.github.io/gpx/" xsi:schemaLocation="http://www.topografix.com/GPX/1/1 http://www.topografix.com/GPX/1/1/gpx.xsd">
  <metadata>
    <name/>
    <time>2026-05-07T23:59:26+00:00</time>
    <bound minlat="90.0" minlon="180.0" maxlat="-90.0" maxlon="-180.0"/>
  </metadata>
  <trk>
    <name/>
    <trkseg>
      <trkpt lat="46.576037" lon="8.420378">
        <time>1970-01-01T00:00:00+00:00</time>
        <ele>2428.0</ele>
      </trkpt>
      <trkpt lat="46.576097" lon="8.420522">
        <time>1970-01-01T00:00:00+00:00</time>
        <ele>2428.0</ele>
      </trkpt>
      <trkpt lat="46.576119" lon="8.420736">
        <time>1970-01-01T00:00:00+00:00</time>
        <ele>2427.0</ele>
      </trkpt>
      <trkpt lat="46.576473" lon="8.420625">
        <time>1970-01-01T00:00:00+00:00</time>
        <ele>2430.0</ele>
      </trkpt>
      <trkpt lat="46.576614" lon="8.420676">
        <time>1970-01-01T00:00:00+00:00</time>
        <ele>2431.0</ele>
      </trkpt>
      <trkpt lat="46.576815" lon="8.420805">
        <time>1970-01-01T00:00:00+00:00</time>
        <ele>2432.0</ele>
      </trkpt>
      <trkpt lat="46.577068" lon="8.420659">
        <time>1970-01-01T00:00:00+00:00</time>
        <ele>2432.0</ele>
      </trkpt>
      <trkpt lat="46.57734" lon="8.420805">
        <time>1970-01-01T00:00:00+00:00</time>
        <ele>2433.0</ele>
      </trkpt>
      <trkpt lat="46.577708" lon="8.421252">
        <time>1970-01-01T00:00:00+00:00</time>
        <ele>2434.0</ele>
      </trkpt>
      <trkpt lat="46.57776" lon="8.421266">
        <time>1970-01-01T00:00:00+00:00</time>
        <ele>2435.0</ele>
      </trkpt>
      <trkpt lat="46.577905" lon="8.421232">
        <time>1970-01-01T00:00:00+00:00</time>
        <ele>2437.0</ele>
      </trkpt>
      <trkpt lat="46.577952" lon="8.4212">
        <time>1970-01-01T00:00:00+00:00</time>
        <ele>2438.0</ele>
      </trkpt>
      <trkpt lat="46.577981" lon="8.421104">
        <time>1970-01-01T00:00:00+00:00</time>
        <ele>2440.0</ele>
      </trkpt>
      <trkpt lat="46.577787" lon="8.420377">
        <time>1970-01-01T00:00:00+00:00</time>
        <ele>2448.0</ele>
      </trkpt>
      <trkpt lat="46.577777" lon="8.420248">
        <time>1970-01-01T00:00:00+00:00</time>
        <ele>2452.0</ele>
      </trkpt>
      <trkpt lat="46.577806" lon="8.42008">
        <time>1970-01-01T00:00:00+00:00</time>
        <ele>2458.0</ele>
      </trkpt>
      <trkpt lat="46.577736" lon="8.41965">
        <time>1970-01-01T00:00:00+00:00</time>
        <ele>2467.0</ele>
      </trkpt>
      <trkpt lat="46.577853" lon="8.419492">
        <time>1970-01-01T00:00:00+00:00</time>
        <ele>2473.0</ele>
      </trkpt>
      <trkpt lat="46.57779" lon="8.419401">
        <time>1970-01-01T00:00:00+00:00</time>
        <ele>2474.0</ele>
      </trkpt>
      <trkpt lat="46.577986" lon="8.419196">
        <time>1970-01-01T00:00:00+00:00</time>
        <ele>2481.0</ele>
      </trkpt>
      <trkpt lat="46.577966" lon="8.418609">
        <time>1970-01-01T00:00:00+00:00</time>
        <ele>2490.0</ele>
      </trkpt>
      <trkpt lat="46.578038" lon="8.41822">
        <time>1970-01-01T00:00:00+00:00</time>
        <ele>2500.0</ele>
      </trkpt>
      <trkpt lat="46.578144" lon="8.418081">
        <time>1970-01-01T00:00:00+00:00</time>
        <ele>2505.0</ele>
      </trkpt>
      <trkpt lat="46.578243" lon="8.417951">
        <time>1970-01-01T00:00:00+00:00</time>
        <ele>2511.0</ele>
      </trkpt>
      <trkpt lat="46.578583" lon="8.41828">
        <time>1970-01-01T00:00:00+00:00</time>
        <ele>2517.0</ele>
      </trkpt>
      <trkpt lat="46.578727" lon="8.41816">
        <time>1970-01-01T00:00:00+00:00</time>
        <ele>2526.0</ele>
      </trkpt>
      <trkpt lat="46.578583" lon="8.417562">
        <time>1970-01-01T00:00:00+00:00</time>
        <ele>2538.0</ele>
      </trkpt>
      <trkpt lat="46.578758" lon="8.417233">
        <time>1970-01-01T00:00:00+00:00</time>
        <ele>2553.0</ele>
      </trkpt>
      <trkpt lat="46.578573" lon="8.416215">
        <time>1970-01-01T00:00:00+00:00</time>
        <ele>2566.0</ele>
      </trkpt>
      <trkpt lat="46.578819" lon="8.415961">
        <time>1970-01-01T00:00:00+00:00</time>
        <ele>2580.0</ele>
      </trkpt>
      <trkpt lat="46.578953" lon="8.415901">
        <time>1970-01-01T00:00:00+00:00</time>
        <ele>2586.0</ele>
      </trkpt>
      <trkpt lat="46.579539" lon="8.416185">
        <time>1970-01-01T00:00:00+00:00</time>
        <ele>2610.0</ele>
      </trkpt>
      <trkpt lat="46.579817" lon="8.415781">
        <time>1970-01-01T00:00:00+00:00</time>
        <ele>2631.0</ele>
      </trkpt>
      <trkpt lat="46.580136" lon="8.415198">
        <time>1970-01-01T00:00:00+00:00</time>
        <ele>2651.0</ele>
      </trkpt>
      <trkpt lat="46.58029" lon="8.414674">
        <time>1970-01-01T00:00:00+00:00</time>
        <ele>2665.0</ele>
      </trkpt>
      <trkpt lat="46.580167" lon="8.41439">
        <time>1970-01-01T00:00:00+00:00</time>
        <ele>2672.0</ele>
      </trkpt>
      <trkpt lat="46.580095" lon="8.414105">
        <time>1970-01-01T00:00:00+00:00</time>
        <ele>2677.0</ele>
      </trkpt>
      <trkpt lat="46.580558" lon="8.413956">
        <time>1970-01-01T00:00:00+00:00</time>
        <ele>2687.0</ele>
      </trkpt>
      <trkpt lat="46.580887" lon="8.413088">
        <time>1970-01-01T00:00:00+00:00</time>
        <ele>2716.0</ele>
      </trkpt>
      <trkpt lat="46.580506" lon="8.41201">
        <time>1970-01-01T00:00:00+00:00</time>
        <ele>2732.0</ele>
      </trkpt>
      <trkpt lat="46.580887" lon="8.411681">
        <time>1970-01-01T00:00:00+00:00</time>
        <ele>2750.0</ele>
      </trkpt>
      <trkpt lat="46.580671" lon="8.411008">
        <time>1970-01-01T00:00:00+00:00</time>
        <ele>2773.0</ele>
      </trkpt>
      <trkpt lat="46.580257" lon="8.410614">
        <time>1970-01-01T00:00:00+00:00</time>
        <ele>2786.0</ele>
      </trkpt>
      <trkpt lat="46.58018" lon="8.410418">
        <time>1970-01-01T00:00:00+00:00</time>
        <ele>2793.0</ele>
      </trkpt>
      <trkpt lat="46.58018" lon="8.410418">
        <time>1970-01-01T00:00:00+00:00</time>
        <ele>2793.0</ele>
      </trkpt>
      <trkpt lat="46.580257" lon="8.410614">
        <time>1970-01-01T00:00:00+00:00</time>
        <ele>2786.0</ele>
      </trkpt>
      <trkpt lat="46.580671" lon="8.411008">
        <time>1970-01-01T00:00:00+00:00</time>
        <ele>2773.0</ele>
      </trkpt>
      <trkpt lat="46.580887" lon="8.411681">
        <time>1970-01-01T00:00:00+00:00</time>
        <ele>2750.0</ele>
      </trkpt>
      <trkpt lat="46.580506" lon="8.41201">
        <time>1970-01-01T00:00:00+00:00</time>
        <ele>2732.0</ele>
      </trkpt>
      <trkpt lat="46.580887" lon="8.413088">
        <time>1970-01-01T00:00:00+00:00</time>
        <ele>2716.0</ele>
      </trkpt>
      <trkpt lat="46.580558" lon="8.413956">
        <time>1970-01-01T00:00:00+00:00</time>
        <ele>2687.0</ele>
      </trkpt>
      <trkpt lat="46.580095" lon="8.414105">
        <time>1970-01-01T00:00:00+00:00</time>
        <ele>2677.0</ele>
      </trkpt>
      <trkpt lat="46.580167" lon="8.41439">
        <time>1970-01-01T00:00:00+00:00</time>
        <ele>2672.0</ele>
      </trkpt>
      <trkpt lat="46.58029" lon="8.414674">
        <time>1970-01-01T00:00:00+00:00</time>
        <ele>2665.0</ele>
      </trkpt>
      <trkpt lat="46.580136" lon="8.415198">
        <time>1970-01-01T00:00:00+00:00</time>
        <ele>2651.0</ele>
      </trkpt>
      <trkpt lat="46.579817" lon="8.415781">
        <time>1970-01-01T00:00:00+00:00</time>
        <ele>2631.0</ele>
      </trkpt>
      <trkpt lat="46.579539" lon="8.416185">
        <time>1970-01-01T00:00:00+00:00</time>
        <ele>2610.0</ele>
      </trkpt>
      <trkpt lat="46.578953" lon="8.415901">
        <time>1970-01-01T00:00:00+00:00</time>
        <ele>2586.0</ele>
      </trkpt>
      <trkpt lat="46.578819" lon="8.415961">
        <time>1970-01-01T00:00:00+00:00</time>
        <ele>2580.0</ele>
      </trkpt>
      <trkpt lat="46.578573" lon="8.416215">
        <time>1970-01-01T00:00:00+00:00</time>
        <ele>2566.0</ele>
      </trkpt>
      <trkpt lat="46.578758" lon="8.417233">
        <time>1970-01-01T00:00:00+00:00</time>
        <ele>2553.0</ele>
      </trkpt>
      <trkpt lat="46.578583" lon="8.417562">
        <time>1970-01-01T00:00:00+00:00</time>
        <ele>2538.0</ele>
      </trkpt>
      <trkpt lat="46.578727" lon="8.41816">
        <time>1970-01-01T00:00:00+00:00</time>
        <ele>2526.0</ele>
      </trkpt>
      <trkpt lat="46.578583" lon="8.41828">
        <time>1970-01-01T00:00:00+00:00</time>
        <ele>2517.0</ele>
      </trkpt>
      <trkpt lat="46.578243" lon="8.417951">
        <time>1970-01-01T00:00:00+00:00</time>
        <ele>2511.0</ele>
      </trkpt>
      <trkpt lat="46.578144" lon="8.418081">
        <time>1970-01-01T00:00:00+00:00</time>
        <ele>2505.0</ele>
      </trkpt>
      <trkpt lat="46.578038" lon="8.41822">
        <time>1970-01-01T00:00:00+00:00</time>
        <ele>2500.0</ele>
      </trkpt>
      <trkpt lat="46.577966" lon="8.418609">
        <time>1970-01-01T00:00:00+00:00</time>
        <ele>2490.0</ele>
      </trkpt>
      <trkpt lat="46.577986" lon="8.419196">
        <time>1970-01-01T00:00:00+00:00</time>
        <ele>2481.0</ele>
      </trkpt>
      <trkpt lat="46.57779" lon="8.419401">
        <time>1970-01-01T00:00:00+00:00</time>
        <ele>2474.0</ele>
      </trkpt>
      <trkpt lat="46.577853" lon="8.419492">
        <time>1970-01-01T00:00:00+00:00</time>
        <ele>2473.0</ele>
      </trkpt>
      <trkpt lat="46.577736" lon="8.41965">
        <time>1970-01-01T00:00:00+00:00</time>
        <ele>2467.0</ele>
      </trkpt>
      <trkpt lat="46.577806" lon="8.42008">
        <time>1970-01-01T00:00:00+00:00</time>
        <ele>2458.0</ele>
      </trkpt>
      <trkpt lat="46.577777" lon="8.420248">
        <time>1970-01-01T00:00:00+00:00</time>
        <ele>2452.0</ele>
      </trkpt>
      <trkpt lat="46.577787" lon="8.420377">
        <time>1970-01-01T00:00:00+00:00</time>
        <ele>2448.0</ele>
      </trkpt>
      <trkpt lat="46.577981" lon="8.421104">
        <time>1970-01-01T00:00:00+00:00</time>
        <ele>2440.0</ele>
      </trkpt>
      <trkpt lat="46.577952" lon="8.4212">
        <time>1970-01-01T00:00:00+00:00</time>
        <ele>2438.0</ele>
      </trkpt>
      <trkpt lat="46.577905" lon="8.421232">
        <time>1970-01-01T00:00:00+00:00</time>
        <ele>2437.0</ele>
      </trkpt>
      <trkpt lat="46.57776" lon="8.421266">
        <time>1970-01-01T00:00:00+00:00</time>
        <ele>2435.0</ele>
      </trkpt>
      <trkpt lat="46.577708" lon="8.421252">
        <time>1970-01-01T00:00:00+00:00</time>
        <ele>2434.0</ele>
      </trkpt>
      <trkpt lat="46.57734" lon="8.420805">
        <time>1970-01-01T00:00:00+00:00</time>
        <ele>2433.0</ele>
      </trkpt>
      <trkpt lat="46.577068" lon="8.420659">
        <time>1970-01-01T00:00:00+00:00</time>
        <ele>2432.0</ele>
      </trkpt>
      <trkpt lat="46.576815" lon="8.420805">
        <time>1970-01-01T00:00:00+00:00</time>
        <ele>2432.0</ele>
      </trkpt>
      <trkpt lat="46.576614" lon="8.420676">
        <time>1970-01-01T00:00:00+00:00</time>
        <ele>2431.0</ele>
      </trkpt>
      <trkpt lat="46.576473" lon="8.420625">
        <time>1970-01-01T00:00:00+00:00</time>
        <ele>2430.0</ele>
      </trkpt>
      <trkpt lat="46.576119" lon="8.420736">
        <time>1970-01-01T00:00:00+00:00</time>
        <ele>2427.0</ele>
      </trkpt>
      <trkpt lat="46.576097" lon="8.420522">
        <time>1970-01-01T00:00:00+00:00</time>
        <ele>2428.0</ele>
      </trkpt>
      <trkpt lat="46.576037" lon="8.420378">
        <time>1970-01-01T00:00:00+00:00</time>
        <ele>2428.0</ele>
      </trkpt>
    </trkseg>
  </trk>
</gpx>
